Regional Weather Roundup
Issued by NWS

Home | Current Version | Previous Version | Graphics & Text | Print | Product List | Glossary On
Versions: 1 2 3 4 5 6 7 8 9 10 11 12 13 14 15 16 17 18 19 20 21 22 23 24 25 26 27 28 29 30 31 32 33 34 35 36 37 38 39 40 41 42 43 44 45 46 47 48 49 50
000
ASUS43 KTOP 191508
RWRKS

WEATHER ROUNDUP FOR KANSAS
NATIONAL WEATHER SERVICE GOODLAND KS
1000 AM CDT SUN APR 19 2015

NOTE:  "FAIR" INDICATES FEW OR NO CLOUDS BELOW 12,000 FEET WITH NO
SIGNIFICANT WEATHER AND/OR OBSTRUCTIONS TO VISIBILITY.

KSZ001>006-013>018-027>032-041>047-191600-
NORTHWEST KANSAS

CITY           SKY/WX    TMP DP  RH WIND       PRES   REMARKS
GOODLAND       CLOUDY    42  38  85 N21G31    30.01R
HAYS           CLOUDY    54  45  71 N20G25    29.84R
HILL CITY      LGT RAIN  49  45  86 N25G36    29.90R FOG
RUSSELL        CLOUDY    55  50  83 N20G25    29.80R
$$

KSZ061>065-074>080-084>089-191600-
SOUTHWEST KANSAS

CITY           SKY/WX    TMP DP  RH WIND       PRES   REMARKS
DODGE CITY     CLOUDY    54  46  74 N26G36    29.85R
ELKHART          N/A    N/A N/A N/A MISG        N/A
GARDEN CITY    CLOUDY    48  44  86 N30G38    29.90R
GREAT BEND     CLOUDY    54  48  82 N10       29.81S
LIBERAL        CLOUDY    48  39  71 NW28G35   29.91R
PRATT          MOSUNNY   52  48  87 N15       29.79F
$$

KSZ066>073-081>083-090>101-191600-
SOUTHEAST KANSAS

CITY           SKY/WX    TMP DP  RH WIND       PRES   REMARKS
CHANUTE        CLOUDY    57  55  93 W10       29.77R
COFFEYVILLE    CLOUDY    59  54  83 W12       29.79R
HUTCHINSON     PTSUNNY   59  50  72 W8        29.77F
MEDICINE LODGE   N/A     58  50  75 W8        29.76F
NEWTON         PTSUNNY   55  48  76 NW10      29.78S
PARSONS        CLOUDY    57  55  93 W10       29.80R
WICHITA INTL   CLOUDY    56  50  80 NW3       29.75F
WICHITA JABRA  PTSUNNY   56  52  86 W6        29.76F
WICHITA MCCONL CLOUDY    56  52  85 CALM      29.76F
WINFIELD       CLOUDY    54  51  90 N3        29.79R
$$

KSZ007>012-019>026-033>040-048>060-102>105-191600-
NORTHEAST KANSAS

CITY           SKY/WX    TMP DP  RH WIND       PRES   REMARKS
CONCORDIA      CLOUDY    54  52  93 N12       29.78R
EMPORIA        CLOUDY    57  52  83 NW9       29.76R
LAWRENCE       CLOUDY    59  53  80 NW14      29.71F
MANHATTAN      CLOUDY    60  52  74 N3        29.74F
MARYSVILLE     CLOUDY    57  52  82 NW16      29.74S
OLATHE IND     CLOUDY    58  54  86 NW12      29.71F
OLATHE EXE     PTSUNNY   57  53  86 NW8       29.70F
SALINA         CLOUDY    59  52  77 NW8       29.77S
TOPEKA BILLARD CLOUDY    61  54  77 NW9       29.72F
TOPEKA FORBES  CLOUDY    61  52  72 NW13      29.72F
$$


USA.gov is the U.S. government's official web portal to all federal, state and local government web resources and services.